{"data":{"norad_id":39190,"intl_designator":"2013-031C","name":"O3B FM2","alt_names":[],"object_type":"PAYLOAD","status":"ACTIVE","operator":null,"country":"O3B","launch_date":"2013-06-25","launch_site_code":"FRGUI","launch_vehicle":null,"mission":null,"orbit_class":"UNKNOWN","rcs_meters":36.0795,"size_class":null,"mass_kg":null,"dimensions":null,"purposes":["comms"],"wikipedia_slug":null,"has_3d_model":false,"image_url":null,"decayed_at":null,"tle_current":{"epoch":"2026-05-24T10:30:39.979008Z","epoch_age_seconds":130428,"freshness":"FRESH","line1":"1 39190U 13031C   26144.43796272 -.00000024  00000+0  00000+0 0  9992","line2":"2 39190   0.0415 339.6432 0002764  79.8021 300.5812  5.00116019235923","mean_motion":5.00116019,"eccentricity":0.0002764,"inclination_deg":0.0415,"raan_deg":339.6432,"arg_perigee_deg":79.8021,"mean_anomaly_deg":300.5812,"bstar":0,"rev_number":23592,"period_min":287.93318855879,"perigee_km":8061.8878989772,"apogee_km":8069.8725516994,"semimajor_km":14444.017225338,"source":"CELESTRAK","updated_at":"2026-05-25T13:38:14.507332Z"}}}